User: anonymous   Login
Location: Bucharest
(44.4268°N, 26.1025°E)
Time: 14:15:09
(UTC+02:00)
Language:

deb Kosmos-407 - Orbit

View from above orbital plane
View from above orbital plane
View from above satellite
View from above satellite

Ground track
Ground track

The orbit data is extracted from the following two-line orbital elements,

1 13497U 78063C   22342.13966164  .00001959  00000-0  44311-3 0  9997
2 13497  74.0547 293.7437 0010274 107.2392 264.4973 14.56859931141985
Epoch (UTC): 08 December 2022 03:21:06
Eccentricity: 0.0010274
inclination: 74.0547°
perigee height: 696 km
apogee height: 710 km
right ascension of ascending node: 293.7437°
argument of perigee: 107.2392°
revolutions per day: 14.56859931
mean anomaly at epoch: 264.4973°
orbit number at epoch: 14198

The dashed part of the orbit path shows where the satellite is in the earth's shadow,  

DLR